Location: Fort Wayne
(41.1310°N, 85.1290°W)
Time: 19:29:44
(UTC-04:00)

BREEZE-M DEB (TANK) - Visible Passes

Search period start: 20 April 2014 00:00
Search period end: 30 April 2014 00:00
Orbit: 262 x 13738 km, 49.6° (Epoch: 19 April)

Date Brightness Start Highest point End Pass type
(mag) Time Alt. Az. Time Alt. Az. Time Alt. Az.
20 Apr 8.3 00:30:43 23° SE 01:15:05 37° E 02:39:58 10° NE visible
20 Apr 8.1 04:47:24 24° SW 06:12:34 83° NNW 07:35:46 10° ENE visible
21 Apr 8.0 02:10:41 38° SSE 02:56:11 63° ESE 04:39:11 10° ENE visible
21 Apr 8.5 23:33:51 16° ESE 00:18:35 26° E 01:29:23 10° NE visible
22 Apr 8.0 03:50:28 33° SW 04:55:37 88° SE 06:33:15 10° ENE visible
23 Apr 8.1 01:13:29 35° SSE 01:54:00 52° E 03:33:19 10° NE visible
23 Apr 8.3 05:30:04 14° WSW 07:21:58 77° N 08:23:47 10° E visible
23 Apr 8.6 22:42:47 10° E 23:23:33 17° ENE 00:11:42 10° NE visible
24 Apr 7.9 02:52:56 39° SSW 03:43:59 78° ESE 05:29:26 10° ENE visible
25 Apr 8.2 00:15:41 28° SE 00:54:19 40° E 02:25:16 10° NE visible
25 Apr 8.2 04:32:13 24° WSW 05:58:42 81° NNW 07:21:34 10° E visible
26 Apr 7.9 01:54:48 41° S 02:36:43 67° ESE 04:24:09 10° ENE visible
26 Apr 8.6 06:17:53 10° W 08:26:47 78° NNE 09:10:05 10° ESE visible
26 Apr 8.3 23:17:15 19° ESE 23:56:39 29° E 01:14:02 10° NE visible
27 Apr 8.0 03:33:44 32° SW 04:38:40 89° NW 06:18:06 10° ENE visible
28 Apr 7.9 00:56:02 38° SSE 01:32:54 55° ESE 03:17:09 10° NE visible
28 Apr 8.4 05:12:28 12° WSW 07:07:47 77° N 08:08:14 10° E visible
28 Apr 8.4 22:18:12 10° ESE 23:00:36 19° ENE 23:57:02 10° NE visible
29 Apr 7.9 02:34:37 39° SSW 03:24:37 82° SE 05:13:14 10° ENE visible
29 Apr 8.0 23:56:37 31° SE 00:00:00 34° SE 00:00:00 34° SE visible
